Location: Owatonna
(44.0840°N, 93.2260°W)
Time: 07:24:42
(UTC-05:00)

Tiangong 1 - Visible Passes

Search period start: 04 September 2015 00:00
Search period end: 14 September 2015 00:00
Orbit: 366 x 385 km, 42.8° (Epoch: 02 September)

Date Brightness Start Highest point End Pass type
(mag) Time Alt. Az. Time Alt. Az. Time Alt. Az.
04 Sep 2.4 20:51:16 10° W 20:54:03 29° SSW 20:55:37 19° SSE visible
05 Sep 3.6 21:26:16 10° WSW 21:27:46 13° SSW 21:28:02 13° SSW visible
06 Sep 3.1 20:23:01 10° WSW 20:25:28 21° SSW 20:27:54 10° SSE visible
